Location: Bittkow
(50.3000°N, 19.0000°E)
Time: 22:36:53
(UTC+00:00)

Cosmos 1484 Rocket - Pass Details

Date: 19 September 2020
Orbit: 507 x 558 km, 97.4° (Epoch: 20 October)

Event Time Altitude Azimuth Distance (km) Brightness Sun altitude
Rises 03:49:05 0° 10° (N) 2,729 6.7 -6.7°
Reaches altitude 10° 03:51:13 10° 8° (N) 1,837 5.7 -6.4°
Maximum altitude 03:55:09 64° 287° (WNW) 619 2.9 -5.8°
Drops below altitude 10° 03:59:06 10° 206° (SSW) 1,840 5.2 -5.1°
Sets 04:01:14 0° 203° (SSW) 2,732 6.1 -4.8°
